Location: Kunchanapalle
(16.4623°N, 80.6176°E)
Time: 13:19:57
(UTC+00:00)

CENTAUR R/B - Pass Details

Date: 13 August 2020
Orbit: 756 x 1432 km, 63.4° (Epoch: 19 September)

Event Time Altitude Azimuth Distance (km) Brightness Sun altitude
Rises 15:08:34 0° 224° (SW) 3,225 5.4 -28.9°
Reaches altitude 10° 15:11:02 10° 233° (SW) 2,337 4.8 -29.4°
Maximum altitude 15:15:54 36° 299° (WNW) 1,296 3.6 -30.4°
Drops below altitude 10° 15:21:21 10° 5° (N) 2,622 5.0 -31.6°
Sets 15:24:18 0° 14° (NNE) 3,675 5.7 -32.2°
